This demonstration page uses our WeatherBlox Daily Observations layout. Learn more.

Left ArrowRight Arrow

34.16533, -84.80231

Hourly Observations for July 20, 2016

Temp ( °F °C ) Dew Point ( °F °C ) Humidity (%) Winds ( mph kmh ) Pressure ( in mb ) Visibility ( mi km ) Precip ( " mm )
12:53 am 00:53 Clear 72 22.2 70 21.1 94 94 Calm 30.14 1021 10 16 0.00 0.00
1:53 am 01:53 Clear 72 22.2 70 21.1 94 94 Calm 30.14 1021 10 16 0.00 0.00
2:53 am 02:53 Clear 70 21.1 69 20.6 97 97 Calm 30.13 1020 10 16 0.00 0.00
3:53 am 03:53 Clear 71 21.7 69 20.6 94 94 Calm 30.12 1020 10 16 0.00 0.00
4:53 am 04:53 Clear 70 21.1 68 20 93 93 Calm 30.13 1020 10 16 0.00 0.00
5:53 am 05:53 Clear 69 20.6 68 20 96 96 Calm 30.14 1021 10 16 0.00 0.00
6:53 am 06:53 Sunny 70 21.1 68 20 93 93 Calm 30.16 1021 10 16 0.00 0.00
7:53 am 07:53 Partly Cloudy 72 22.2 69 20.6 91 91 Calm 30.17 1022 10 16 0.00 0.00
8:53 am 08:53 Sunny 76 24.4 70 21.1 82 82 Calm 30.18 1022 10 16 0.00 0.00
9:53 am 09:53 Sunny 82 27.8 72 22.2 72 72 NNE 3 6 30.18 1022 10 16 0.00 0.00
10:53 am 10:53 Sunny 85 29.4 72 22.2 65 65 SE 6 9 30.18 1022 10 16 0.00 0.00
11:53 am 11:53 Sunny 88 31.1 71 21.7 57 57 E 5 7 30.17 1022 10 16 0.00 0.00
12:53 pm 12:53 Mostly Sunny 89 31.7 71 21.7 55 55 VRB 3 6 30.16 1022 10 16 0.00 0.00
1:53 pm 13:53 Sunny 92 33.3 72 22.2 52 52 VRB 3 6 30.15 1021 10 16 0.00 0.00
2:53 pm 14:53 Mostly Sunny 93 33.9 70 21.1 47 47 SSE 6 9 30.12 1020 10 16 0.00 0.00
3:53 pm 15:53 Partly Cloudy 94 34.4 69 20.6 44 44 VRB 6 9 30.10 1019 10 16 0.00 0.00
4:53 pm 16:53 Sunny 93 33.9 68 20 44 44 SSE 5 7 30.08 1019 10 16 0.00 0.00
5:53 pm 17:53 Sunny 95 35 68 20 41 41 SSE 5 7 30.06 1018 10 16 0.00 0.00
6:53 pm 18:53 Sunny 92 33.3 68 20 46 46 SSE 3 6 30.05 1018 10 16 0.00 0.00
7:53 pm 19:53 Sunny 87 30.6 75 23.9 67 67 SSE 3 6 30.08 1019 10 16 0.00 0.00
8:53 pm 20:53 Clear 80 26.7 73 22.8 79 79 Calm 30.08 1019 10 16 0.00 0.00
9:53 pm 21:53 Clear 79 26.1 71 21.7 77 77 Calm 30.08 1019 10 16 0.00 0.00
10:53 pm 22:53 Clear 76 24.4 72 22.2 88 88 Calm 30.10 1019 10 16 0.00 0.00
11:53 pm 23:53 Clear 76 24.4 72 22.2 88 88 Calm 30.10 1019 10 16 0.00 0.00

Powered by AerisWeather